period_start,C,m1,H,J0,J1,J2,J3,J4,J5,JA,JB,JC,JD,JJ,JK,JN,#
2017-03-19 00:00:35,0.14,6.00,0.00,23.86,26.77,30.11,14.42,51.07,1010.12,2028.97,1808.81,1866.42,2131.75,600.02,590.62,34.78,0000 0000 0000 0000 000000
2017-03-19 00:05:37,0.13,6.01,0.00,23.86,26.77,30.13,14.34,51.03,1009.99,2028.98,1807.62,1865.59,2130.76,600.03,590.59,34.83,0000 0000 0000 0000 000000
2017-03-19 00:10:38,0.14,6.01,0.00,23.90,26.77,30.13,14.39,51.07,1009.98,2028.96,1806.35,1864.65,2129.68,599.75,590.12,34.88,0000 0000 0000 0000 000000
2017-03-19 00:15:39,0.12,6.02,0.00,23.87,26.77,30.11,14.43,51.09,1010.25,2028.98,1805.04,1863.84,2128.61,600.04,590.57,34.93,0000 0000 0000 0000 000000
2017-03-19 00:20:41,0.11,6.03,0.00,23.86,26.77,30.14,14.41,50.83,1010.29,2028.99,1803.91,1863.01,2127.78,600.23,590.87,34.98,0000 0000 0000 0000 000000
2017-03-19 00:25:42,0.14,6.03,0.00,23.90,26.77,30.14,14.35,50.76,1010.62,2028.97,1802.73,1862.12,2126.78,600.11,590.88,35.03,0000 0000 0000 0000 000000
2017-03-19 00:30:43,0.14,6.04,0.00,23.90,26.78,30.15,14.41,50.97,1010.78,2028.97,1801.52,1861.27,2125.84,599.99,590.81,35.09,0000 0000 0000 0000 000000
2017-03-19 00:35:44,0.11,6.05,0.00,23.87,26.78,30.15,14.40,50.95,1011.11,2028.98,1800.44,1860.59,2124.93,600.25,591.42,35.14,0000 0000 0000 0000 000000
2017-03-19 00:40:46,0.10,6.05,0.00,23.87,26.78,30.16,14.38,50.77,1011.39,2028.97,1799.30,1859.85,2124.01,599.82,590.85,35.19,0000 0000 0000 0000 000000
2017-03-19 00:45:47,0.12,6.06,0.00,23.90,26.78,30.16,14.39,50.58,1011.72,2028.96,1798.08,1858.99,2123.06,599.99,591.28,35.24,0000 0000 0000 0000 000000
2017-03-19 00:50:48,0.13,6.07,0.00,23.90,26.78,30.13,14.41,50.62,1011.76,2028.97,1796.99,1858.15,2122.17,599.85,591.30,35.29,0000 0000 0000 0000 000000
2017-03-19 00:55:50,0.13,6.07,0.00,23.87,26.78,30.13,14.41,50.44,1012.11,2028.98,1795.89,1857.43,2121.26,600.19,591.89,35.34,0000 0000 0000 0000 000000
2017-03-19 01:00:51,0.10,6.08,0.00,23.89,26.78,30.14,14.42,50.48,1012.19,2028.97,1794.82,1856.78,2120.36,600.29,591.95,35.39,0000 0000 0000 0000 000000
2017-03-19 01:05:52,0.12,6.08,0.00,23.94,26.78,30.16,14.39,50.45,1012.22,2028.96,1793.65,1856.01,2119.54,599.91,591.49,35.44,0000 0000 0000 0000 000000
2017-03-19 01:10:53,0.13,6.09,0.00,23.93,26.78,30.16,14.41,50.44,1012.22,2028.97,1792.53,1855.17,2118.64,600.24,591.83,35.49,0000 0000 0000 0000 000000
2017-03-19 01:15:54,0.10,6.10,0.00,23.95,26.78,30.16,14.36,50.50,1012.22,2028.98,1791.42,1854.70,2117.76,599.64,591.21,35.54,0000 0000 0000 0000 000000
2017-03-19 01:20:56,0.09,6.10,0.00,23.95,26.79,30.17,14.40,50.43,1012.22,2028.99,1790.37,1853.97,2116.93,600.15,591.72,35.59,0000 0000 0000 0000 000000
2017-03-19 01:25:57,0.12,6.11,0.00,23.98,26.79,30.15,14.37,50.34,1012.21,2028.98,1789.29,1853.13,2116.02,599.81,591.27,35.64,0000 0000 0000 0000 000000
2017-03-19 01:30:58,0.12,6.11,0.00,24.00,26.79,30.16,14.32,50.44,1012.17,2028.97,1788.12,1852.43,2115.12,599.90,591.38,35.69,0000 0000 0000 0000 000000
2017-03-19 01:35:59,0.12,6.12,0.00,24.00,26.79,30.17,14.42,50.80,1011.81,2028.98,1786.93,1851.72,2114.22,600.09,591.32,35.74,0000 0000 0000 0000 000000
2017-03-19 01:41:00,0.11,6.13,0.00,24.00,26.77,30.16,14.39,50.90,1011.74,2028.98,1785.79,1850.99,2113.36,599.87,591.16,35.79,0000 0000 0000 0000 000000
2017-03-19 01:46:02,0.13,6.13,0.00,24.02,26.77,30.16,14.43,51.04,1011.75,2028.98,1784.64,1850.15,2112.51,599.99,591.20,35.84,0000 0000 0000 0000 000000
2017-03-19 01:51:03,0.11,6.14,0.00,24.00,26.77,30.15,14.31,50.66,1011.80,2028.98,1783.64,1849.54,2111.68,599.64,590.94,35.89,0000 0000 0000 0000 000000
2017-03-19 01:56:05,0.07,6.14,0.00,24.00,26.77,30.14,14.38,50.63,1012.08,2028.99,1782.58,1848.92,2111.00,599.79,591.27,35.95,0000 0000 0000 0000 000000
2017-03-19 02:01:06,0.13,6.15,0.00,24.01,26.77,30.14,14.39,50.58,1012.22,2028.98,1781.52,1848.08,2110.19,600.01,591.45,36.00,0000 0000 0000 0000 000000
2017-03-19 02:06:08,0.13,6.16,0.00,24.03,26.75,30.13,14.40,50.71,1012.22,2028.99,1780.41,1847.43,2109.39,600.12,591.51,36.05,0000 0000 0000 0000 000000
2017-03-19 02:11:09,0.09,6.16,0.00,24.01,26.75,30.10,14.43,50.70,1012.22,2028.99,1779.31,1846.81,2108.56,600.39,591.86,36.10,0000 0000 0000 0000 000000
2017-03-19 02:16:11,0.11,6.17,0.00,24.02,26.75,30.10,14.43,50.66,1012.23,2028.99,1778.15,1846.00,2107.65,600.07,591.50,36.15,0000 0000 0000 0000 000000
2017-03-19 02:21:12,0.12,6.17,0.00,24.05,26.75,30.07,14.39,50.73,1012.28,2028.99,1777.02,1845.14,2106.85,600.07,591.48,36.20,0000 0000 0000 0000 000000
2017-03-19 02:26:14,0.11,6.18,0.00,24.04,26.74,30.06,14.44,50.95,1012.30,2028.99,1776.03,1844.56,2106.02,600.29,591.71,36.25,0000 0000 0000 0000 000000
2017-03-19 02:31:15,0.10,6.19,0.00,24.00,26.73,30.06,14.45,50.95,1012.60,2028.99,1774.95,1843.92,2105.17,600.39,592.23,36.30,0000 0000 0000 0000 000000
2017-03-19 02:36:16,0.14,6.19,0.00,24.03,26.73,30.07,14.46,50.78,1012.71,2028.99,1773.77,1843.08,2104.34,600.17,591.99,36.35,0000 0000 0000 0000 000000
2017-03-19 02:41:17,0.14,6.20,0.00,24.02,26.73,30.07,14.35,50.57,1012.73,2028.99,1772.49,1842.33,2103.42,600.19,591.94,36.40,0000 0000 0000 0000 000000
2017-03-19 02:46:18,0.09,6.20,0.00,24.05,26.73,30.06,14.38,50.72,1012.73,2028.99,1771.62,1841.74,2102.61,599.92,591.59,36.45,0000 0000 0000 0000 000000
2017-03-19 02:51:19,0.09,6.21,0.00,24.06,26.74,30.08,14.34,50.74,1012.75,2028.99,1770.60,1841.03,2101.86,599.83,591.43,36.50,0000 0000 0000 0000 000000
2017-03-19 02:56:21,0.12,6.21,0.00,24.03,26.74,30.07,14.41,50.72,1012.73,2028.99,1769.51,1840.33,2101.04,599.82,591.60,36.55,0000 0000 0000 0000 000000
2017-03-19 03:01:22,0.09,6.22,0.00,24.03,26.75,30.08,14.44,50.65,1012.71,2028.99,1768.53,1839.77,2100.18,600.02,591.68,36.60,0000 0000 0000 0000 000000
2017-03-19 03:06:23,0.12,6.23,0.00,24.03,26.75,30.09,14.36,50.42,1012.71,2028.99,1767.28,1838.99,2099.23,600.02,591.72,36.65,0000 0000 0000 0000 000000
2017-03-19 03:11:24,0.12,6.23,0.00,24.04,26.75,30.09,14.40,50.45,1012.72,2028.99,1766.25,1838.15,2098.51,600.16,591.79,36.70,0000 0000 0000 0000 000000
2017-03-19 03:16:25,0.09,6.24,0.00,24.08,26.75,30.08,14.40,50.54,1012.73,2028.99,1765.44,1837.68,2097.78,600.04,591.66,36.75,0000 0000 0000 0000 000000
2017-03-19 03:21:27,0.09,6.24,0.00,24.13,26.75,30.09,14.37,50.57,1012.75,2028.99,1764.42,1836.97,2096.96,599.97,591.38,36.80,0000 0000 0000 0000 000000
2017-03-19 03:26:28,0.13,6.25,0.00,24.14,26.75,30.09,14.31,50.67,1012.84,2028.99,1763.23,1836.12,2096.07,599.73,591.31,36.86,0000 0000 0000 0000 000000
2017-03-19 03:31:29,0.12,6.26,0.00,24.12,26.75,30.09,14.44,50.63,1012.98,2028.99,1762.10,1835.50,2095.16,600.03,591.75,36.91,0000 0000 0000 0000 000000
2017-03-19 03:36:30,0.10,6.26,0.00,24.12,26.75,30.09,14.41,50.49,1013.14,2028.99,1761.02,1834.83,2094.34,600.10,591.82,36.96,0000 0000 0000 0000 000000
2017-03-19 03:41:32,0.11,6.27,0.00,24.14,26.76,30.09,14.34,50.50,1013.19,2028.99,1760.02,1834.04,2093.56,600.29,592.03,37.01,0000 0000 0000 0000 000000
2017-03-19 03:46:33,0.13,6.27,0.00,24.14,26.77,30.08,14.38,50.34,1013.20,2028.99,1758.92,1833.28,2092.69,600.12,591.87,37.06,0000 0000 0000 0000 000000
2017-03-19 03:51:34,0.09,6.28,0.00,24.18,26.77,30.10,14.40,50.38,1013.20,2028.99,1757.86,1832.71,2091.90,599.96,591.51,37.11,0000 0000 0000 0000 000000
2017-03-19 03:56:35,0.11,6.29,0.00,24.17,26.77,30.09,14.34,50.38,1013.20,2028.99,1756.80,1831.99,2091.03,600.01,591.56,37.16,0000 0000 0000 0000 000000
2017-03-19 04:01:37,0.12,6.29,0.00,24.16,26.77,30.08,14.38,50.59,1013.20,2028.99,1755.81,1831.14,2090.15,600.10,591.74,37.21,0000 0000 0000 0000 000000
2017-03-19 04:06:38,0.13,6.30,0.00,24.19,26.77,30.08,14.41,50.52,1013.20,2028.99,1754.72,1830.55,2089.36,600.18,591.75,37.26,0000 0000 0000 0000 000000
2017-03-19 04:11:40,0.09,6.30,0.00,24.21,26.77,30.06,14.32,50.21,1013.19,2028.99,1753.64,1829.93,2088.56,599.94,591.56,37.31,0000 0000 0000 0000 000000
2017-03-19 04:16:41,0.11,6.31,0.00,24.22,26.77,30.07,14.44,50.38,1013.18,2028.99,1752.64,1829.11,2087.78,600.05,591.60,37.36,0000 0000 0000 0000 000000
2017-03-19 04:21:42,0.10,6.31,0.00,24.23,26.77,30.06,14.45,50.51,1012.91,2028.99,1751.71,1828.57,2086.99,600.17,591.55,37.41,0000 0000 0000 0000 000000
2017-03-19 04:26:43,0.11,6.32,0.00,24.26,26.77,30.04,14.35,50.63,1012.73,2028.99,1750.59,1827.89,2086.12,600.30,591.57,37.46,0000 0000 0000 0000 000000
2017-03-19 04:31:45,0.13,6.33,0.00,24.25,26.77,30.04,14.46,50.67,1012.82,2028.99,1749.48,1827.08,2085.29,600.17,591.46,37.51,0000 0000 0000 0000 000000
2017-03-19 04:36:46,0.12,6.33,0.00,24.25,26.77,30.04,14.37,50.49,1013.12,2028.99,1748.46,1826.44,2084.53,599.75,591.28,37.56,0000 0000 0000 0000 000000
2017-03-19 04:41:47,0.09,6.34,0.00,24.28,26.77,30.02,14.39,50.42,1013.20,2028.99,1747.38,1825.81,2083.76,599.90,591.35,37.61,0000 0000 0000 0000 000000
2017-03-19 04:46:49,0.11,6.34,0.00,24.27,26.77,30.02,14.40,50.61,1013.20,2028.99,1746.40,1825.03,2082.88,600.00,591.51,37.66,0000 0000 0000 0000 000000
2017-03-19 04:51:50,0.13,6.35,0.00,24.27,26.77,30.02,14.32,50.52,1013.20,2028.99,1745.27,1824.27,2082.01,599.91,591.40,37.71,0000 0000 0000 0000 000000
2017-03-19 04:56:51,0.12,6.36,0.00,24.29,26.77,30.00,14.37,50.67,1013.18,2028.98,1744.17,1823.62,2081.13,600.20,591.69,37.77,0000 0000 0000 0000 000000
2017-03-19 05:01:52,0.10,6.36,0.00,24.28,26.77,30.00,14.41,50.85,1013.08,2028.99,1743.19,1822.95,2080.34,600.01,591.41,37.82,0000 0000 0000 0000 000000
2017-03-19 05:06:54,0.15,6.37,0.00,24.29,26.77,30.01,14.38,50.92,1013.09,2028.99,1741.97,1822.02,2079.27,599.81,591.25,37.87,0000 0000 0000 0000 000000
2017-03-19 05:11:55,0.14,6.38,0.00,24.30,26.77,30.00,14.40,50.80,1013.20,2028.99,1740.82,1821.11,2078.36,600.09,591.64,37.92,0000 0000 0000 0000 000000
2017-03-19 05:16:56,0.13,6.38,0.00,24.29,26.77,30.01,14.32,50.66,1013.21,2028.99,1739.77,1820.38,2077.39,600.09,591.50,37.97,0000 0000 0000 0000 000000
2017-03-19 05:21:57,0.11,6.39,0.00,24.31,26.77,29.99,14.43,50.54,1013.41,2028.99,1738.69,1819.71,2076.62,600.23,591.62,38.02,0000 0000 0000 0000 000000
2017-03-19 05:26:58,0.12,6.39,0.00,24.30,26.76,30.00,14.39,50.52,1013.58,2028.98,1737.47,1818.95,2075.68,599.93,591.64,38.07,0000 0000 0000 0000 000000
2017-03-19 05:31:59,0.12,6.40,0.00,24.30,26.76,29.99,14.38,50.37,1013.60,2028.99,1736.47,1818.13,2074.87,600.12,591.69,38.12,0000 0000 0000 0000 000000
2017-03-19 05:37:00,0.13,6.41,0.00,24.33,26.76,30.00,14.30,50.38,1013.68,2028.98,1735.33,1817.46,2073.98,599.98,591.58,38.17,0000 0000 0000 0000 000000
2017-03-19 05:42:02,0.11,6.41,0.00,24.34,26.76,29.99,14.26,50.41,1013.61,2028.99,1734.19,1816.76,2073.08,599.74,591.35,38.22,0000 0000 0000 0000 000000
2017-03-19 05:47:03,0.12,6.42,0.00,24.34,26.76,29.96,14.35,50.38,1013.65,2028.99,1733.01,1816.00,2072.19,600.13,591.76,38.27,0000 0000 0000 0000 000000
2017-03-19 05:52:04,0.14,6.43,0.00,24.33,26.77,29.97,14.37,50.45,1013.66,2028.99,1731.85,1815.15,2071.28,599.96,591.59,38.32,0000 0000 0000 0000 000000
2017-03-19 05:57:05,0.14,6.43,0.00,24.34,26.77,29.98,14.39,50.60,1013.64,2028.98,1730.72,1814.43,2070.38,599.88,591.44,38.37,0000 0000 0000 0000 000000
2017-03-19 06:02:07,0.12,6.44,0.00,24.35,26.77,29.95,14.35,50.44,1013.67,2028.98,1729.55,1813.70,2069.45,600.11,591.67,38.42,0000 0000 0000 0000 000000
2017-03-19 06:07:08,0.10,6.45,0.00,24.36,26.77,29.96,14.33,50.26,1013.68,2028.99,1728.49,1812.98,2068.63,599.72,591.33,38.47,0000 0000 0000 0000 000000
2017-03-19 06:12:09,0.13,6.45,0.00,24.36,26.77,29.97,14.36,50.34,1013.69,2028.99,1727.43,1812.13,2067.70,599.94,591.57,38.52,0000 0000 0000 0000 000000
2017-03-19 06:17:11,0.12,6.46,0.00,24.36,26.77,29.95,14.36,50.19,1013.70,2028.97,1726.34,1811.38,2066.78,600.10,591.71,38.57,0000 0000 0000 0000 000000
2017-03-19 06:22:12,0.12,6.47,0.00,24.39,26.77,29.95,14.43,50.41,1013.72,2028.98,1725.09,1810.60,2065.85,600.00,591.52,38.63,0000 0000 0000 0000 000000
2017-03-19 06:27:14,0.09,6.47,0.00,24.40,26.77,29.95,14.28,50.32,1013.96,2028.98,1723.95,1809.92,2064.98,599.77,591.25,38.68,0000 0000 0000 0000 000000
2017-03-19 06:32:15,0.15,6.48,0.00,24.37,26.77,29.94,14.36,50.47,1013.98,2028.99,1722.82,1809.08,2064.06,599.83,591.49,38.73,0000 0000 0000 0000 000000
2017-03-19 06:37:16,0.13,6.49,0.00,24.38,26.77,29.95,14.36,50.63,1013.87,2028.98,1721.75,1808.33,2063.18,600.08,591.81,38.78,0000 0000 0000 0000 000000
2017-03-19 06:42:17,0.11,6.49,0.00,24.39,26.77,29.96,14.38,50.60,1013.91,2028.98,1720.74,1807.71,2062.38,599.84,591.48,38.83,0000 0000 0000 0000 000000
2017-03-19 06:47:18,0.11,6.50,0.00,24.38,26.77,29.95,14.41,50.65,1013.86,2028.99,1719.72,1806.98,2061.50,600.31,591.96,38.88,0000 0000 0000 0000 000000
2017-03-19 06:52:19,0.13,6.50,0.00,24.38,26.77,29.96,14.43,50.69,1013.85,2028.98,1718.69,1806.11,2060.69,600.20,591.84,38.93,0000 0000 0000 0000 000000
2017-03-19 06:57:20,0.10,6.51,0.00,24.34,26.77,29.95,14.42,50.75,1014.05,2028.98,1717.76,1805.52,2059.91,600.19,591.97,38.98,0000 0000 0000 0000 000000
2017-03-19 07:02:22,0.09,6.51,0.00,24.35,26.77,29.96,14.32,50.75,1014.14,2028.98,1716.74,1804.90,2059.05,599.75,591.65,39.03,0000 0000 0000 0000 000000
2017-03-19 07:07:23,0.12,6.52,0.00,24.36,26.77,29.96,14.40,50.69,1014.15,2028.98,1715.80,1804.08,2058.19,600.00,591.87,39.08,0000 0000 0000 0000 000000
2017-03-19 07:12:24,0.11,6.52,0.00,24.37,26.77,29.94,14.39,50.65,1014.16,2028.98,1714.91,1803.52,2057.49,600.07,591.93,39.13,0000 0000 0000 0000 000000
2017-03-19 07:17:25,0.07,6.53,0.00,24.36,26.77,29.97,14.33,50.79,1014.15,2028.98,1714.02,1802.94,2056.79,599.96,591.81,39.18,0000 0000 0000 0000 000000
2017-03-19 07:22:26,0.12,6.54,0.00,24.36,26.77,29.93,14.38,50.67,1014.14,2028.99,1713.13,1802.11,2055.98,599.87,591.74,39.23,0000 0000 0000 0000 000000
2017-03-19 07:27:28,0.12,6.54,0.00,24.34,26.77,29.95,14.35,50.42,1014.17,2028.99,1712.12,1801.53,2055.10,599.97,591.82,39.28,0000 0000 0000 0000 000000
2017-03-19 07:32:29,0.09,6.55,0.00,24.36,26.77,29.94,14.44,50.52,1014.17,2028.98,1711.17,1800.92,2054.34,600.13,592.01,39.33,0000 0000 0000 0000 000000
2017-03-19 07:37:30,0.13,6.55,0.00,24.36,26.77,29.94,14.38,50.50,1014.17,2028.99,1710.20,1800.11,2053.58,600.09,591.90,39.38,0000 0000 0000 0000 000000
2017-03-19 07:42:32,0.12,6.56,0.00,24.35,26.77,29.95,14.35,50.33,1014.17,2028.98,1709.19,1799.42,2052.77,599.68,591.58,39.43,0000 0000 0000 0000 000000
2017-03-19 07:47:33,0.09,6.57,0.00,24.38,26.77,29.91,14.37,50.33,1014.15,2028.98,1708.21,1798.84,2051.97,600.08,591.88,39.48,0000 0000 0000 0000 000000
2017-03-19 07:52:35,0.12,6.57,0.00,24.37,26.77,29.91,14.44,50.55,1014.15,2028.97,1707.21,1798.03,2051.08,600.44,592.24,39.53,0000 0000 0000 0000 000000
2017-03-19 07:57:36,0.13,6.58,0.00,24.34,26.77,29.93,14.45,50.54,1014.17,2028.96,1706.16,1797.23,2050.20,600.00,591.83,39.59,0000 0000 0000 0000 000000
2017-03-19 08:02:38,0.11,6.58,0.00,24.35,26.77,29.93,14.28,50.46,1014.18,2028.97,1705.30,1796.70,2049.50,599.69,591.55,39.64,0000 0000 0000 0000 000000
2017-03-19 08:07:39,0.09,6.59,0.00,24.37,26.77,29.92,14.40,50.44,1014.19,2028.98,1704.33,1796.01,2048.77,600.23,592.12,39.69,0000 0000 0000 0000 000000
2017-03-19 08:12:41,0.13,6.59,0.00,24.36,26.77,29.91,14.38,50.48,1014.19,2028.97,1703.42,1795.25,2047.93,599.79,591.72,39.74,0000 0000 0000 0000 000000
2017-03-19 08:17:42,0.11,6.60,0.00,24.38,26.77,29.91,14.36,50.21,1014.18,2028.97,1702.42,1794.71,2047.06,599.63,591.49,39.79,0000 0000 0000 0000 000000
2017-03-19 08:22:43,0.10,6.61,0.00,24.37,26.77,29.92,14.35,50.29,1014.18,2028.97,1701.46,1794.00,2046.59,599.89,591.73,39.84,0000 0000 0000 0000 000000
2017-03-19 08:27:44,0.13,6.61,0.00,24.36,26.77,29.92,14.29,50.33,1014.18,2028.97,1700.38,1793.17,2045.76,599.86,591.79,39.89,0000 0000 0000 0000 000000
2017-03-19 08:32:45,0.12,6.62,0.00,24.37,26.77,29.91,14.49,50.41,1014.18,2028.96,1699.27,1792.46,2044.89,600.18,592.00,39.94,0000 0000 0000 0000 000000
2017-03-19 08:37:47,0.09,6.62,0.00,24.38,26.77,29.92,14.35,50.39,1014.19,2028.96,1698.25,1791.90,2044.04,600.03,591.89,39.99,0000 0000 0000 0000 000000
2017-03-19 08:42:48,0.13,6.63,0.00,24.40,26.78,29.93,14.41,50.37,1014.18,2028.98,1697.19,1791.09,2043.16,600.33,592.07,40.04,0000 0000 0000 0000 000000
2017-03-19 08:47:49,0.13,6.64,0.00,24.38,26.78,29.94,14.40,50.54,1014.18,2028.96,1696.11,1790.34,2042.25,599.93,591.81,40.09,0000 0000 0000 0000 000000
2017-03-19 08:52:51,0.15,6.65,0.00,24.35,26.78,29.94,14.43,50.40,1014.16,2028.98,1695.05,1789.44,2041.38,600.21,591.96,40.14,0000 0000 0000 0000 000000
2017-03-19 08:57:52,0.12,6.65,0.00,24.38,26.79,29.93,14.32,50.32,1014.17,2028.96,1693.92,1788.67,2040.47,599.87,591.70,40.19,0000 0000 0000 0000 000000
2017-03-19 09:02:53,0.11,6.66,0.00,24.39,26.79,29.93,14.39,50.30,1014.16,2028.94,1692.82,1787.93,2039.68,600.19,592.04,40.24,0000 0000 0000 0000 000000
2017-03-19 09:07:55,0.14,6.66,0.00,24.38,26.79,29.91,14.36,50.37,1014.08,2028.91,1691.72,1787.10,2038.73,599.86,591.63,40.29,0000 0000 0000 0000 000000
2017-03-19 09:12:56,0.13,6.67,0.00,24.40,26.80,29.92,14.42,50.48,1013.94,2028.91,1690.68,1786.34,2037.86,600.01,591.68,40.34,0000 0000 0000 0000 000000
2017-03-19 09:17:57,0.12,6.68,0.00,24.39,26.80,29.94,14.35,50.38,1013.72,2028.93,1689.51,1785.69,2036.97,599.90,591.48,40.39,0000 0000 0000 0000 000000
2017-03-19 09:22:59,0.11,6.68,0.00,24.38,26.80,29.94,14.34,50.62,1013.69,2028.95,1688.40,1784.93,2036.07,600.02,591.54,40.44,0000 0000 0000 0000 000000
2017-03-19 09:28:00,0.14,6.69,0.00,24.37,26.80,29.94,14.42,50.74,1013.69,2028.95,1687.26,1784.09,2035.19,600.02,591.52,40.50,0000 0000 0000 0000 000000
2017-03-19 09:33:01,0.14,6.70,0.00,24.36,26.80,29.94,14.33,50.66,1013.69,2028.96,1686.16,1783.40,2034.25,600.09,591.79,40.55,0000 0000 0000 0000 000000
2017-03-19 09:38:03,0.10,6.70,0.00,24.35,26.80,29.94,14.40,50.85,1013.69,2028.98,1685.23,1782.76,2033.50,600.08,591.69,40.60,0000 0000 0000 0000 000000
2017-03-19 09:43:04,0.11,6.71,0.00,24.35,26.80,29.93,14.31,50.73,1013.69,2028.97,1684.15,1781.97,2032.65,599.74,591.33,40.65,0000 0000 0000 0000 000000
2017-03-19 09:48:05,0.12,6.72,0.00,24.36,26.80,29.95,14.42,50.66,1013.69,2028.96,1683.00,1781.13,2031.83,600.39,592.01,40.70,0000 0000 0000 0000 000000
2017-03-19 09:53:07,0.13,6.72,0.00,24.33,26.80,29.95,14.37,50.63,1013.70,2028.96,1681.94,1780.46,2030.93,600.02,591.69,40.75,0000 0000 0000 0000 000000
2017-03-19 09:58:08,0.13,6.73,0.00,24.32,26.80,29.94,14.37,50.67,1013.70,2028.92,1680.80,1779.72,2030.04,600.12,591.81,40.80,0000 0000 0000 0000 000000
2017-03-19 10:03:09,0.12,6.74,0.00,24.32,26.80,29.95,14.45,50.61,1013.80,2028.94,1679.68,1779.01,2029.12,599.91,591.70,40.85,0000 0000 0000 0000 000000
2017-03-19 10:08:10,0.14,6.74,0.00,24.34,26.80,29.97,14.37,50.41,1013.88,2028.94,1678.60,1778.18,2028.25,599.76,591.47,40.90,0000 0000 0000 0000 000000
2017-03-19 10:13:11,0.13,6.75,0.00,24.32,26.80,29.94,14.34,50.42,1013.84,2028.90,1677.47,1777.45,2027.35,599.96,591.67,40.95,0000 0000 0000 0000 000000
2017-03-19 10:18:13,0.12,6.75,0.00,24.36,26.80,29.93,14.32,50.23,1013.75,2028.83,1676.34,1776.75,2026.41,599.76,591.50,41.00,0000 0000 0000 0000 000000
2017-03-19 10:23:14,0.12,6.76,0.00,24.36,26.80,29.94,14.39,50.08,1013.76,2028.92,1675.29,1776.02,2025.69,600.14,591.57,41.05,0000 0000 0000 0000 000000
2017-03-19 10:28:16,0.14,6.77,0.00,24.33,26.80,29.94,14.49,50.22,1013.70,2028.93,1674.14,1775.29,2024.73,600.16,591.80,41.10,0000 0000 0000 0000 000000
2017-03-19 10:33:17,0.12,6.78,0.00,24.35,26.80,29.91,14.34,50.20,1013.69,2028.94,1673.00,1774.50,2023.93,600.05,591.70,41.15,0000 0000 0000 0000 000000
2017-03-19 10:38:18,0.09,6.78,0.00,24.34,26.80,29.92,14.44,50.35,1013.59,2028.92,1671.99,1773.82,2023.05,600.42,591.87,41.20,0000 0000 0000 0000 000000
2017-03-19 10:43:19,0.13,6.79,0.00,24.37,26.80,29.94,14.37,50.48,1013.24,2028.91,1670.98,1773.05,2022.17,600.24,591.60,41.25,0000 0000 0000 0000 000000
2017-03-19 10:48:20,0.13,6.80,0.00,24.37,26.80,29.93,14.35,50.68,1012.95,2028.90,1669.98,1772.25,2021.26,599.83,590.95,41.30,0000 0000 0000 0000 000000
2017-03-19 10:53:22,0.09,6.80,0.00,24.35,26.80,29.92,14.33,51.04,1012.71,2028.91,1669.02,1771.79,2020.56,599.71,590.66,41.36,0000 0000 0000 0000 000000
2017-03-19 10:58:23,0.11,6.81,0.00,24.35,26.81,29.94,14.41,51.17,1012.71,2028.83,1668.00,1771.02,2019.82,600.04,591.15,41.41,0000 0000 0000 0000 000000
2017-03-19 11:03:24,0.13,6.81,0.00,24.36,26.82,29.94,14.38,51.16,1012.71,2028.85,1666.93,1770.23,2018.96,600.04,591.17,41.46,0000 0000 0000 0000 000000
2017-03-19 11:08:26,0.18,6.82,0.00,24.36,26.82,29.95,14.40,51.05,1012.68,2028.84,1665.66,1769.41,2017.91,600.37,591.32,41.51,0000 0000 0000 0000 000000
2017-03-19 11:13:27,0.14,6.83,0.00,24.33,26.82,29.96,14.36,51.19,1012.67,2028.92,1664.50,1768.68,2016.94,599.87,590.91,41.56,0000 0000 0000 0000 000000
2017-03-19 11:18:28,0.11,6.84,0.00,24.33,26.82,29.97,14.35,51.16,1012.70,2028.93,1663.27,1767.94,2016.06,599.90,590.95,41.61,0000 0000 0000 0000 000000
2017-03-19 11:23:29,0.13,6.84,0.00,24.32,26.82,29.98,14.41,51.04,1012.71,2028.91,1662.26,1767.08,2015.17,600.27,591.32,41.66,0000 0000 0000 0000 000000
2017-03-19 11:28:31,0.13,6.85,0.00,24.32,26.82,29.97,14.36,51.09,1012.71,2028.83,1661.08,1766.26,2014.15,600.10,591.14,41.71,0000 0000 0000 0000 000000
2017-03-19 11:33:33,0.13,6.85,0.00,24.34,26.82,29.96,14.41,50.95,1012.72,2028.82,1660.01,1765.61,2013.24,600.13,591.16,41.76,0000 0000 0000 0000 000000
2017-03-19 11:38:34,0.13,6.86,0.00,24.32,26.82,29.96,14.38,50.71,1012.72,2028.86,1658.85,1764.83,2012.32,600.08,590.96,41.81,0000 0000 0000 0000 000000
2017-03-19 11:43:35,0.15,6.87,0.00,24.31,26.81,29.97,14.41,50.92,1012.71,2028.88,1657.67,1764.02,2011.40,600.10,591.25,41.86,0000 0000 0000 0000 000000
2017-03-19 11:48:37,0.15,6.88,0.00,24.30,26.81,29.97,14.31,50.92,1012.71,2028.92,1656.47,1763.17,2010.44,599.99,591.22,41.91,0000 0000 0000 0000 000000
2017-03-19 11:53:38,0.13,6.88,0.00,24.30,26.80,29.95,14.44,50.93,1012.71,2028.88,1655.43,1762.31,2009.48,600.06,591.21,41.96,0000 0000 0000 0000 000000
2017-03-19 11:58:39,0.12,6.89,0.00,24.34,26.80,29.96,14.34,50.98,1012.70,2028.81,1654.32,1761.65,2008.57,599.52,590.69,42.01,0000 0000 0000 0000 000000
2017-03-19 12:03:40,0.10,6.90,0.00,24.34,26.80,29.95,14.43,51.00,1012.69,2028.89,1653.31,1760.94,2007.78,600.00,591.12,42.06,0000 0000 0000 0000 000000
2017-03-19 12:08:42,0.15,6.90,0.00,24.32,26.80,29.96,14.36,50.73,1012.67,2028.86,1652.12,1760.09,2006.78,599.86,591.04,42.11,0000 0000 0000 0000 000000
2017-03-19 12:13:43,0.13,6.91,0.00,24.34,26.80,29.94,14.39,50.72,1012.71,2028.83,1650.95,1759.32,2005.89,600.23,591.21,42.16,0000 0000 0000 0000 000000
2017-03-19 12:18:44,0.16,6.92,0.00,24.33,26.80,29.97,14.34,50.56,1012.71,2028.90,1649.81,1758.48,2004.93,599.79,590.90,42.21,0000 0000 0000 0000 000000
2017-03-19 12:23:46,0.14,6.93,0.00,24.29,26.80,29.95,14.42,51.03,1012.69,2028.93,1648.53,1757.78,2003.99,600.05,591.26,42.27,0000 0000 0000 0000 000000
2017-03-19 12:28:47,0.13,6.93,0.00,24.31,26.80,29.95,14.42,50.83,1012.52,2028.95,1647.37,1756.95,2003.04,600.13,591.25,42.32,0000 0000 0000 0000 000000
2017-03-19 12:33:49,0.14,6.94,0.00,24.33,26.80,29.96,14.33,51.02,1012.28,2028.94,1646.19,1756.10,2002.10,599.90,590.72,42.37,0000 0000 0000 0000 000000
2017-03-19 12:38:50,0.13,6.94,0.00,24.32,26.80,29.97,14.36,51.06,1012.35,2028.95,1645.32,1755.46,2001.33,600.05,590.99,42.42,0000 0000 0000 0000 000000
2017-03-19 12:43:51,0.12,6.95,0.00,24.30,26.80,29.96,14.42,51.12,1012.50,2028.94,1644.25,1754.73,2000.40,600.26,591.34,42.47,0000 0000 0000 0000 000000
2017-03-19 12:48:52,0.12,6.96,0.00,24.30,26.80,29.98,14.35,50.79,1012.67,2028.97,1643.10,1753.97,1999.57,599.94,591.21,42.52,0000 0000 0000 0000 000000
2017-03-19 12:53:53,0.15,6.97,0.00,24.32,26.80,29.97,14.41,50.76,1012.70,2028.99,1641.98,1753.10,1998.56,600.15,591.17,42.57,0000 0000 0000 0000 000000